Stations météo

réclame
Mon MeteoGroup
Sciacca, Italie (16436): Température de l'air & dewpoint: 08.08.2018 23:00:00 - 14.08.2018 23:00:00 (CEST)Sciacca, Italie (16436): Vitesse du vent: 08.08.2018 23:00:00 - 14.08.2018 23:00:00 (CEST)Sciacca, Italie (16436): Direction du vent: 08.08.2018 23:00:00 - 14.08.2018 23:00:00 (CEST)Sciacca, Italie (16436): reduced air pressure: 08.08.2018 23:00:00 - 14.08.2018 23:00:00 (CEST)Sciacca, Italie (16436): Quantités de précipitations: 08.08.2018 23:00:00 - 14.08.2018 23:00:00 (CEST)
Date & Time tt [°C] td [°C] ff [km/h] ff [knt] dd ppp [hPa] rr [mm]
14.08.2018 23:00:00 25,0 21,9 5 3 E 1022,9 -
14.08.2018 22:00:00 26,4 22,0 9 5 WNW 1022,4 -
14.08.2018 21:00:00 26,3 24,1 18 10 WNW 1022,3 -
14.08.2018 20:00:00 27,1 23,3 15 8 WNW 1021,7 0,0
14.08.2018 19:00:00 27,7 24,1 - - - 1021,5 -
14.08.2018 18:00:00 28,8 23,7 - - - 1021,8 -
14.08.2018 17:00:00 29,7 21,1 15 8 W 1021,9 -
14.08.2018 16:00:00 29,3 23,4 18 10 WSW 1021,4 -
14.08.2018 15:00:00 29,6 21,5 18 10 SW 1021,8 -
14.08.2018 14:00:00 29,0 23,6 18 10 WSW 1022,2 0,0
14.08.2018 13:00:00 28,4 25,8 16 9 WSW 1022,8 -
14.08.2018 12:00:00 27,8 25,6 13 7 SW 1023,5 -
14.08.2018 11:00:00 28,5 22,9 11 6 WSW 1023,8 -
14.08.2018 10:00:00 26,1 24,5 5 3 SSW 1023,9 -
14.08.2018 09:00:00 24,9 23,8 5 3 S 1024,0 -
14.08.2018 08:00:00 23,4 22,7 0 0 N 1023,8 0,0
14.08.2018 07:00:00 22,5 21,8 2 1 NNW 1023,9 -
14.08.2018 06:00:00 23,4 23,0 5 3 NW 1023,9 -
14.08.2018 05:00:00 22,2 21,5 4 2 N 1023,7 -
14.08.2018 04:00:00 22,5 21,8 8 4 W 1023,7 -
14.08.2018 03:00:00 22,1 20,9 4 2 NNE 1023,4 -
14.08.2018 02:00:00 23,1 22,2 5 3 NNE 1023,4 0,0
14.08.2018 01:00:00 23,8 23,1 5 3 NNW 1023,6 -
14.08.2018 00:00:00 24,1 23,4 2 1 SW 1023,5 -
13.08.2018 23:00:00 23,8 22,7 2 1 WSW 1023,3 -
13.08.2018 22:00:00 24,7 23,4 2 1 ENE 1023,4 -
13.08.2018 21:00:00 25,3 24,0 5 3 WSW 1023,0 -
13.08.2018 20:00:00 26,0 24,4 2 1 NNE 1022,8 0,0
13.08.2018 19:00:00 27,3 25,3 5 3 SW 1022,8 -
13.08.2018 18:00:00 27,6 24,8 11 6 SW 1023,0 -
13.08.2018 17:00:00 28,3 24,3 8 4 SSW 1023,2 -
13.08.2018 16:00:00 29,0 25,8 9 5 SW 1023,7 -
13.08.2018 15:00:00 27,9 24,1 - - - 1024,3 -
13.08.2018 14:00:00 27,0 24,8 - - - 1025,1 0,0
13.08.2018 13:00:00 28,1 24,9 9 5 SSW 1025,6 -
13.08.2018 12:00:00 27,7 22,6 4 2 S 1025,8 -
13.08.2018 11:00:00 26,9 23,9 4 2 SSE 1026,0 -
13.08.2018 10:00:00 26,2 22,2 4 2 S 1026,0 -
13.08.2018 09:00:00 25,5 23,1 4 2 SE 1026,0 -
13.08.2018 08:00:00 23,8 22,0 2 1 N 1025,4 0,0
13.08.2018 07:00:00 22,2 20,4 2 1 NE 1025,3 -
13.08.2018 06:00:00 22,3 20,5 4 2 NE 1025,1 -
13.08.2018 05:00:00 22,1 19,8 2 1 NE 1025,1 -
13.08.2018 04:00:00 22,9 20,2 4 2 NNE 1024,9 -
13.08.2018 03:00:00 23,5 21,2 5 3 NNE 1025,1 -
13.08.2018 02:00:00 23,5 21,9 5 3 NNE 1025,4 0,0
13.08.2018 01:00:00 23,5 22,6 8 4 NE 1026,0 -
13.08.2018 00:00:00 23,6 22,5 4 2 NE 1026,4 -
12.08.2018 23:00:00 24,0 22,6 2 1 ENE 1026,4 -
12.08.2018 22:00:00 24,7 22,9 0 0 N 1026,0 -
12.08.2018 21:00:00 25,8 22,8 2 1 SW 1025,4 -
12.08.2018 20:00:00 26,5 22,5 4 2 S 1025,2 0,0
12.08.2018 19:00:00 28,0 21,2 5 3 S 1025,2 -
12.08.2018 18:00:00 28,6 20,6 9 5 SW 1024,9 -
12.08.2018 17:00:00 29,5 17,9 15 8 SW 1025,3 -
12.08.2018 16:00:00 30,0 18,1 13 7 WSW 1025,7 -
12.08.2018 15:00:00 30,2 17,3 11 6 SW 1026,2 -
12.08.2018 14:00:00 29,4 22,3 13 7 SW 1026,5 0,0
12.08.2018 13:00:00 29,5 21,4 15 8 WSW 1026,6 -
12.08.2018 12:00:00 29,2 20,0 9 5 SW 1026,6 -
12.08.2018 11:00:00 28,9 21,4 8 4 SW 1026,8 -
12.08.2018 10:00:00 27,9 22,3 9 5 SW 1027,0 -
12.08.2018 09:00:00 26,3 23,1 4 2 WSW 1027,1 -
12.08.2018 08:00:00 23,5 21,7 5 3 NE 1027,0 0,0
12.08.2018 07:00:00 22,6 20,8 4 2 NE 1026,9 -
12.08.2018 06:00:00 22,5 20,9 4 2 NE 1026,9 -
12.08.2018 05:00:00 22,1 20,7 4 2 SW 1026,7 -
12.08.2018 04:00:00 22,0 19,3 2 1 NW 1026,6 -
12.08.2018 03:00:00 23,0 21,6 4 2 NE 1026,5 -
12.08.2018 02:00:00 23,2 20,7 0 0 N 1026,8 0,0
12.08.2018 01:00:00 23,9 21,5 4 2 E 1026,9 -
12.08.2018 00:00:00 24,1 20,6 0 0 N 1027,3 -
11.08.2018 23:00:00 26,3 21,2 2 1 SW 1027,0 -
11.08.2018 22:00:00 27,6 15,9 9 5 NNE 1026,5 -
11.08.2018 21:00:00 28,7 15,5 13 7 NNE 1025,3 -
11.08.2018 20:00:00 30,1 16,8 9 5 NE 1024,8 0,0
11.08.2018 19:00:00 31,7 17,9 - - - 1024,5 -
11.08.2018 18:00:00 32,6 16,4 - - - 1024,1 -
11.08.2018 17:00:00 33,1 24,3 - - - 1024,3 -
11.08.2018 16:00:00 31,5 21,3 - - - 1025,3 -
11.08.2018 15:00:00 31,1 19,1 - - - 1026,0 -
11.08.2018 14:00:00 30,5 21,8 - - - 1026,6 0,0
11.08.2018 13:00:00 31,3 16,5 9 5 WSW 1026,9 -
11.08.2018 12:00:00 29,7 16,5 11 6 WSW 1027,4 -
11.08.2018 11:00:00 29,0 17,8 9 5 SW 1027,6 -
11.08.2018 10:00:00 28,5 17,6 5 3 WSW 1027,9 -
11.08.2018 09:00:00 27,2 21,0 2 1 SSW 1028,2 -
11.08.2018 08:00:00 25,1 20,9 2 1 WNW 1028,2 0,0
11.08.2018 07:00:00 23,5 18,7 5 3 NE 1027,9 -
11.08.2018 06:00:00 22,9 19,2 2 1 NE 1027,8 -
11.08.2018 05:00:00 22,5 19,0 2 1 NE 1027,9 -
11.08.2018 04:00:00 23,6 19,9 5 3 NE 1027,9 -
11.08.2018 03:00:00 23,7 18,9 0 0 N 1028,2 -
11.08.2018 02:00:00 24,1 17,8 0 0 N 1028,5 0,0
11.08.2018 01:00:00 25,9 18,5 5 3 NE 1028,6 -
11.08.2018 00:00:00 26,8 19,6 13 7 NNE 1028,4 -
10.08.2018 23:00:00 27,5 17,9 8 4 NE 1028,1 -
10.08.2018 22:00:00 28,1 17,0 4 2 N 1027,7 -
10.08.2018 21:00:00 29,5 16,3 16 9 NNE 1026,9 -
10.08.2018 20:00:00 30,4 17,4 - - - 1026,3 0,0
10.08.2018 19:00:00 32,1 17,2 - - - 1025,8 -
10.08.2018 18:00:00 33,4 18,7 - - - 1025,7 -
10.08.2018 17:00:00 32,2 17,3 - - - 1026,2 -
10.08.2018 16:00:00 31,7 19,3 - - - 1026,6 -
10.08.2018 15:00:00 30,5 22,4 - - - 1027,3 -
10.08.2018 14:00:00 30,7 18,7 16 9 WSW 1027,7 0,0
10.08.2018 13:00:00 29,8 18,2 11 6 S 1028,1 -
10.08.2018 12:00:00 28,8 22,3 9 5 SW 1028,3 -
10.08.2018 11:00:00 28,7 21,9 5 3 SSW 1028,4 -
10.08.2018 10:00:00 27,3 22,9 9 5 SW 1028,8 -
10.08.2018 09:00:00 26,3 23,1 4 2 WSW 1028,9 -
10.08.2018 08:00:00 24,4 23,0 0 0 N 1028,6 0,0
10.08.2018 07:00:00 21,8 20,6 0 0 N 1028,4 -
10.08.2018 06:00:00 22,2 20,6 4 2 NNE 1028,2 -
10.08.2018 05:00:00 22,2 20,4 0 0 N 1027,9 -
10.08.2018 04:00:00 22,5 20,9 4 2 NE 1027,8 -
10.08.2018 03:00:00 22,4 20,6 2 1 NE 1027,7 -
10.08.2018 02:00:00 23,1 20,6 4 2 NE 1027,6 0,0
10.08.2018 01:00:00 23,5 21,0 4 2 NNE 1027,6 -
10.08.2018 00:00:00 24,3 19,5 4 2 NE 1027,5 -
09.08.2018 23:00:00 25,1 20,7 4 2 E 1027,2 -
09.08.2018 22:00:00 25,5 18,1 4 2 SSE 1026,9 -
09.08.2018 21:00:00 26,3 16,2 2 1 S 1025,7 -
09.08.2018 20:00:00 27,1 20,4 4 2 WSW 1025,4 0,0
09.08.2018 19:00:00 27,2 23,0 9 5 WSW 1025,2 -
09.08.2018 18:00:00 27,9 20,7 13 7 SW 1024,8 -
09.08.2018 17:00:00 28,6 17,4 16 9 SW 1025,0 -
09.08.2018 16:00:00 28,9 17,7 15 8 SW 1025,4 -
09.08.2018 15:00:00 28,5 20,7 15 8 WSW 1025,4 -
09.08.2018 14:00:00 29,0 22,4 13 7 SW 1025,6 0,0
09.08.2018 13:00:00 28,9 21,1 15 8 WSW 1025,7 -
09.08.2018 12:00:00 28,9 17,7 8 4 SW 1025,7 -
09.08.2018 11:00:00 27,9 17,7 8 4 SW 1026,1 -
09.08.2018 10:00:00 26,7 20,0 4 2 WSW 1025,9 -
09.08.2018 09:00:00 26,1 21,5 4 2 SSW 1026,0 -
09.08.2018 08:00:00 24,1 21,9 0 0 N 1026,1 0,0
09.08.2018 07:00:00 22,7 20,5 2 1 NE 1025,8 -
09.08.2018 06:00:00 22,6 20,6 0 0 N 1025,5 -
09.08.2018 05:00:00 22,6 20,6 5 3 NNE 1025,4 -
09.08.2018 04:00:00 22,7 20,5 4 2 NNE 1025,3 -
09.08.2018 03:00:00 23,0 21,2 2 1 N 1025,2 -
09.08.2018 02:00:00 23,3 21,9 5 3 NNE 1025,0 0,0
09.08.2018 01:00:00 23,9 22,5 4 2 NE 1025,4 -
09.08.2018 00:00:00 24,4 22,8 5 3 ENE 1025,4 -
08.08.2018 23:00:00 25,3 22,7 5 3 NNE 1024,9 -

tt = Température de l'air
td = dewpoint
ff = Vitesse du vent
dd = Direction du vent
ppp = reduced air pressure
rr = Quantités de précipitations

stations d'obs. à proximité